User: anonymous
Location: Drayton Valley
(53.2170°N, 114.9830°W)
Time: 13:54:03
(UTC-06:00)
Language:

MOZ.5/SAFIR/RUBIN 5/SL-8 - Orbit

View from above orbital plane
View from above orbital plane
View from above satellite
View from above satellite

Ground track
Ground track

The orbit data is extracted from the following two-line orbital elements,

1 28898U 05043G   14273.46568332  .00000610  00000-0  13702-3 0  9411
2 28898 097.8364 097.2278 0021180 067.1369 348.3606 14.59554811475282
Epoch (UTC): 30 September 2014 11:10:35
Eccentricity: 0.0021180
inclination: 97.8364°
perigee height: 679 km
apogee height: 709 km
right ascension of ascending node: 97.2278°
argument of perigee: 67.1369°
revolutions per day: 14.59554811
mean anomaly at epoch: 348.3606°
orbit number at epoch: 47528

The dashed part of the orbit path shows where the satellite is in the earth's shadow,  

DLR